Regional Weather Roundup
Issued by NWS

Home | Current Version | Previous Version | Graphics & Text | Print | Product List | Glossary On
Versions: 1 2 3 4 5 6 7 8 9 10 11 12 13 14 15 16 17 18 19 20 21 22 23 24 25 26 27 28 29 30 31 32 33 34 35 36 37 38 39 40 41 42 43 44 45 46 47 48 49 50
000
ASUS45 KBOI 230710
RWRID

IDAHO REGIONAL WEATHER ROUNDUP
NATIONAL WEATHER SERVICE BOISE ID
1200 AM MST FRI FEB 23 2018

NOTE: "FAIR" INDICATES FEW OR NO CLOUDS BELOW 12000 FEET
WITH NO SIGNIFICANT WEATHER AND/OR OBSTRUCTIONS TO VISIBILITY

IDZ012-014-230800-
SOUTHWEST IDAHO


CITY           SKY/WX    TMP DP  RH WIND       PRES   REMARKS
BOISE          PTCLDY    17  13  84 CALM      30.12R
CALDWELL       PTCLDY    21  13  71 W12       30.17R WCI   9
MOUNTAIN HOME  PTCLDY    18  18 100 NW8       30.10S WCI   8
$$

IDZ016-017-230800-
SOUTHCENTRAL IDAHO


CITY           SKY/WX    TMP DP  RH WIND       PRES   REMARKS
BURLEY         PTCLDY    14  11  87 SW7       30.02S WCI   4
JEROME         PTCLDY    18  12  77 S6        30.04R WCI  10
TWIN FALLS     PTCLDY    14  11  87 S12       30.03S WCI   0
$$

IDZ019>023-230800-
SOUTHEAST IDAHO


CITY           SKY/WX    TMP DP  RH WIND       PRES   REMARKS
IDAHO FALLS    CLOUDY    23  20  88 S12       29.99R WCI  12
POCATELLO      CLOUDY    22  17  81 SW8       30.02R WCI  12
REXBURG        CLOUDY    22  17  81 S10       29.97S WCI  11
$$

IDZ006-010-011-018-031-032-230800-
CENTRAL IDAHO MOUNTAINS


CITY           SKY/WX    TMP DP  RH WIND       PRES   REMARKS
MCCALL         PTCLDY     3   0  87 CALM      30.00R
HAILEY         LGT SNOW  10   9  92 NW7       29.97S WCI   0
STANLEY          N/A      0  -5  79 E3        29.93R
SALMON         FLURRIES  23  19  85 N8        30.01R WCI  14
CHALLIS        CLEAR     13   5  70 CALM      29.95R
$$

IDZ002-004-006-007-026-230800-
NORTHERN IDAHO


CITY           SKY/WX    TMP DP  RH WIND       PRES   REMARKS
LEWISTON       CLOUDY    28  15  58 W9        30.31R WCI  19
LOWELL           N/A     25  22  88 CALM      30.31R
COEUR D`ALENE  PTCLDY    19  12  74 W5        30.24R WCI  12
MULLAN PASS    CLOUDY     8   4  83 CALM      29.97R
$$



USA.gov is the U.S. government's official web portal to all federal, state and local government web resources and services.